[[{"header":{"parameterUnit":"m.s-1","parameterCategory":1,"la1":30.2991,"la2":30.254,"lo1":-89.0895,"lo2":-89.0444,"dy":0.0017,"dx":0.0017,"nx":28,"ny":28,"refTime":"2025-05-26T09:00:00:Z","depth":0,"parameterNumber":2,"parameterNumberName":"U-component_of_WINDS"},"data":[0,0,0,0,0,0,0,0,0,0,0,0,0,0,0,0,0,0,0,0,0,0,0,0,0,0,0,0,0,0,0,0,0,0,0,0,0,0,0,0,0,0,0,0,0,0,0,0,0,0,0,0,0,0,0,0,0,0,1.8291,1.8291,0,1.8274,1.8273,1.8273,1.8219,1.8218,1.8217,1.8216,1.8198,1.8199,1.8199,0,0,0,0,0,0,0,0,0,0,0,0,0,1.8276,1.8276,1.8291,1.8291,1.829,1.8274,1.8273,1.8273,1.8219,1.8218,1.8216,1.8215,1.8198,1.8199,1.8199,0,0,0,0,0,0,0,0,0,0,0,0,0,1.8273,1.8277,1.8291,1.8261,1.8259,1.8274,1.8273,1.8273,1.822,1.8218,1.8216,1.8214,1.8197,1.8198,1.8199,1.8242,0,0,1.8202,1.8203,0,0,0,0,0,0,0,0,1.8273,1.8274,1.8266,1.8264,1.826,1.8247,1.8262,1.8263,1.822,1.8234,1.8216,1.8213,1.8216,1.8215,1.8216,1.8241,1.824,1.8202,1.8203,1.8204,1.8204,0,0,0,0,0,0,0,1.8273,1.8274,1.8284,1.8266,1.8263,1.8249,1.8246,1.8262,1.8235,1.8233,1.8229,1.8228,1.8214,1.8215,1.8215,1.824,1.8202,1.8203,1.8204,1.8204,1.8296,1.8298,0,0,0,0,0,0,1.8278,1.8274,1.8285,1.8284,1.8262,1.8251,1.8248,1.8253,1.8235,1.8231,1.8229,1.8225,1.8214,1.8214,1.8214,1.8261,1.8204,1.8204,1.8205,1.8294,1.8297,1.8299,0,0,0,0,0,0,1.8278,1.8279,1.8285,1.8278,1.8278,1.8253,1.8259,1.8254,1.8255,1.8232,1.8227,1.8235,1.8213,1.8213,1.8235,1.8259,1.8205,1.8206,1.8292,1.8295,1.8298,1.8355,0,0,0,0,0,0,1.8278,1.828,1.8296,1.8279,1.8278,1.8307,1.826,1.8254,1.8256,1.8251,1.8237,1.8232,1.8211,1.8233,1.8236,1.826,1.8207,1.829,1.8293,1.8297,1.8351,1.8359,1.8367,0,0,0,0,0,1.8277,1.8313,1.8297,1.8298,1.8298,1.8308,1.8308,1.8283,1.8259,1.8274,1.826,1.8233,1.8257,1.8236,1.8238,1.8263,1.8288,1.8292,1.8297,1.8347,1.8358,1.8367,0,0,0,0,0,0,1.8334,1.831,1.8292,1.8323,1.8318,1.8299,1.8318,1.8295,1.8296,1.8291,1.826,1.8257,1.8283,1.8275,1.8253,1.8302,1.8268,1.8273,1.8306,1.8315,1.8323,1.8324,1.8207,0,0,0,0,0,1.835,1.8361,1.8339,1.8369,1.8367,1.8343,1.8347,1.8328,1.8321,1.8319,1.8306,1.83,1.8306,1.831,1.8315,1.835,1.8345,1.8368,1.8376,1.8382,1.8386,1.8402,1.8412,1.8312,1.8312,1.8312,0,0,1.8384,1.8372,1.8381,1.838,1.8374,1.8385,1.8342,1.8356,1.8363,1.8321,1.834,1.8331,1.8322,1.835,1.8362,1.8344,1.8413,1.8388,1.8393,1.8393,1.8408,1.8417,1.8425,1.8315,1.8315,1.8314,0,0,1.845,1.8443,1.8466,1.846,1.8451,1.8434,1.844,1.8424,1.8416,1.8435,1.8403,1.8411,1.8423,1.8417,1.8416,1.8479,1.8454,1.8481,1.8523,1.8539,1.8546,1.8553,1.8574,1.8582,1.8486,1.8486,1.8486,0,1.8492,1.8508,1.848,1.8496,1.8496,1.8458,1.848,1.8476,1.8469,1.847,1.845,1.8462,1.8454,1.848,1.8495,1.8496,1.85,1.8482,1.8548,1.8554,1.856,1.8579,1.8587,1.8489,1.8489,1.8488,1.8488,0,1.856,1.8571,1.859,1.8583,1.8586,1.8605,1.858,1.8586,1.8567,1.8552,1.8571,1.856,1.856,1.8565,1.8547,1.8588,1.8577,1.8553,1.8518,1.8573,1.8591,1.8598,1.8494,1.8493,1.8492,1.8491,0,0,1.8661,1.8638,1.8645,1.8641,1.8628,1.8635,1.8652,1.8653,1.8657,1.8654,1.8666,1.8676,1.8653,1.8652,1.8633,1.8647,1.8695,1.8621,1.862,1.8634,1.8737,1.8754,1.8763,1.8679,1.8681,1.8682,1.8737,0,1.8722,1.8749,1.8724,1.8756,1.8765,1.8728,1.8743,1.8736,1.8723,1.8728,1.8713,1.872,1.8691,1.8689,1.8702,1.8687,1.8715,1.8683,1.8689,1.869,1.8691,1.8773,1.8791,1.8844,1.8744,1.8746,1.8746,0,1.8797,1.8795,1.8828,1.8811,1.8813,1.8827,1.8824,1.883,1.8821,1.881,1.8809,1.8785,1.8799,1.8766,1.8785,1.8763,1.8764,1.8757,1.8759,1.8757,1.872,1.8772,1.8861,1.8868,1.8757,1.8756,1.8756,0,1.8865,1.8871,1.8891,1.8889,1.887,1.888,1.8872,1.8862,1.8863,1.8861,1.8861,1.8861,1.886,1.8861,1.8837,1.8815,1.8858,1.8823,1.8848,1.8849,1.8858,1.8857,1.8947,1.8862,1.8862,1.8862,1.8861,0,1.8934,1.8955,1.8921,1.8933,1.8955,1.8926,1.8949,1.8937,1.8928,1.8936,1.8906,1.8914,1.8884,1.8889,1.8871,1.8888,1.8889,1.8879,1.8874,1.8881,1.8882,1.888,1.8875,1.8864,1.8863,1.8863,1.8862,0,1.9014,1.8992,1.901,1.8991,1.8986,1.9003,1.8986,1.8996,1.898,1.8992,1.8993,1.8968,1.8973,1.895,1.895,1.8938,1.8964,1.8953,1.8966,1.8962,1.8988,1.8985,1.9078,1.9088,1.8999,1.9,1.9,0,1.9059,1.9073,1.9055,1.9059,1.9053,1.9059,1.9059,1.9032,1.9034,1.9024,1.9035,1.9037,1.9037,1.9045,1.9028,1.9027,1.9015,1.9048,1.9015,1.9021,1.9013,1.9012,1.9013,1.9054,1.9055,1.9056,1.9057,0,1.914,1.9128,1.9131,1.9129,1.913,1.9128,1.9123,1.9128,1.9098,1.9102,1.9105,1.9105,1.9105,1.9107,1.9103,1.9095,1.9071,1.9068,1.9073,1.908,1.9086,1.9081,1.8983,1.9065,1.9064,1.9064,1.9063,1.9063,1.9202,1.9213,1.9201,1.9204,1.9198,1.9194,1.9202,1.9187,1.919,1.9187,1.9171,1.9178,1.9167,1.9159,1.9153,1.9158,1.9142,1.9151,1.9152,1.9154,1.9158,1.9087,1.9157,1.9157,1.9157,1.9157,1.9156,0,1.9281,1.9271,1.9274,1.9268,1.927,1.9248,1.9241,1.9244,1.925,1.9242,1.9243,1.9246,1.9248,1.923,1.9229,1.9235,1.9224,1.9236,1.9234,1.9232,1.9173,1.9168,1.9245,1.9245,1.9245,1.9245,1.9245,1.9245,1.9321,1.9338,1.9325,1.9337,1.9327,1.9333,1.9331,1.9327,1.932,1.9326,1.9326,1.9315,1.9303,1.93,1.93,1.9295,1.9295,1.931,1.9301,1.9245,1.9237,1.9229,1.9223,1.9311,1.9311,1.9359,1.936,1.936]},{"header":{"parameterUnit":"m.s-1","parameterCategory":1,"la1":30.2991,"la2":30.254,"lo1":-89.0895,"lo2":-89.0444,"dy":0.0017,"dx":0.0017,"nx":28,"ny":28,"refTime":"2025-05-26T09:00:00:Z","depth":0,"parameterNumber":3,"parameterNumberName":"V-component_of_WINDS"},"data":[0,0,0,0,0,0,0,0,0,0,0,0,0,0,0,0,0,0,0,0,0,0,0,0,0,0,0,0,0,0,0,0,0,0,0,0,0,0,0,0,0,0,0,0,0,0,0,0,0,0,0,0,0,0,0,0,0,0,4.2429,4.243,0,4.2538,4.254,4.2541,4.2524,4.2522,4.252,4.2518,4.2625,4.2629,4.2633,0,0,0,0,0,0,0,0,0,0,0,0,0,4.22,4.2205,4.2429,4.243,4.2432,4.2538,4.254,4.2541,4.2524,4.2522,4.2519,4.2517,4.2623,4.2628,4.2634,0,0,0,0,0,0,0,0,0,0,0,0,0,4.2303,4.2206,4.2429,4.2436,4.2438,4.2538,4.254,4.2541,4.2524,4.2522,4.2519,4.2516,4.2621,4.2628,4.2635,4.2733,0,0,4.2656,4.2659,0,0,0,0,0,0,0,0,4.2298,4.2312,4.2434,4.2436,4.2438,4.2515,4.2498,4.2605,4.2525,4.2491,4.2518,4.2515,4.259,4.2599,4.2626,4.2738,4.2742,4.2656,4.266,4.2663,4.2665,0,0,0,0,0,0,0,4.2291,4.2307,4.2472,4.2435,4.2438,4.2432,4.2444,4.2518,4.2555,4.2494,4.2493,4.2507,4.259,4.2619,4.2628,4.2744,4.2656,4.2662,4.2666,4.2669,4.2942,4.2945,0,0,0,0,0,0,4.2282,4.2301,4.2469,4.2475,4.236,4.2439,4.2452,4.2493,4.2554,4.2561,4.2509,4.2505,4.2609,4.262,4.2632,4.2751,4.2663,4.267,4.2674,4.2939,4.2943,4.2946,0,0,0,0,0,0,4.2277,4.2297,4.2464,4.2388,4.2409,4.2446,4.2492,4.2496,4.2525,4.2565,4.2571,4.2532,4.2607,4.2622,4.2708,4.2755,4.2673,4.2679,4.2935,4.294,4.2945,4.2991,0,0,0,0,0,0,4.2271,4.2296,4.2334,4.2389,4.2413,4.2541,4.2495,4.25,4.2537,4.2534,4.2588,4.2594,4.2606,4.2698,4.2715,4.2763,4.2684,4.2931,4.2938,4.2943,4.2985,4.2996,4.3006,0,0,0,0,0,4.2263,4.2341,4.2336,4.2357,4.2463,4.2543,4.2557,4.257,4.2541,4.258,4.2606,4.2593,4.2747,4.2707,4.2726,4.2776,4.2929,4.2936,4.2943,4.298,4.2994,4.3006,0,0,0,0,0,0,4.2289,4.2349,4.2344,4.2443,4.2489,4.254,4.2589,4.2584,4.2637,4.2631,4.2644,4.2656,4.2744,4.2768,4.2723,4.2875,4.2833,4.2845,4.2856,4.2869,4.2879,4.2872,4.269,0,0,0,0,0,4.2306,4.2369,4.2417,4.25,4.2523,4.2552,4.2588,4.2595,4.2641,4.266,4.2692,4.2736,4.2795,4.2833,4.2889,4.2988,4.3,4.3032,4.3043,4.3051,4.3061,4.3116,4.3131,4.297,4.297,4.2969,0,0,4.2343,4.2383,4.2421,4.2506,4.2542,4.2605,4.2569,4.2636,4.2683,4.2669,4.2754,4.2779,4.2829,4.2923,4.2966,4.2946,4.3108,4.306,4.3066,4.3072,4.3124,4.314,4.3153,4.2974,4.2974,4.2973,0,0,4.2442,4.2479,4.2552,4.259,4.2646,4.2665,4.2682,4.2736,4.2753,4.2838,4.2829,4.2884,4.2984,4.3021,4.3052,4.3166,4.3156,4.3184,4.3238,4.3292,4.3305,4.3316,4.3357,4.3372,4.3193,4.3193,4.3193,0,4.248,4.2576,4.259,4.266,4.2697,4.269,4.2764,4.2799,4.2869,4.2895,4.2872,4.2999,4.3032,4.3135,4.3163,4.3188,4.3209,4.3178,4.3302,4.3313,4.3324,4.3364,4.3379,4.3196,4.3196,4.3196,4.3195,0,4.262,4.2687,4.2739,4.281,4.2853,4.2924,4.2949,4.299,4.2993,4.3014,4.3101,4.3141,4.3205,4.323,4.3232,4.3333,4.3319,4.3299,4.3258,4.3342,4.338,4.3395,4.3201,4.32,4.3199,4.3198,0,0,4.2738,4.2817,4.2836,4.2869,4.293,4.2981,4.3052,4.3117,4.3153,4.3201,4.3261,4.3346,4.3329,4.3365,4.3371,4.3418,4.3507,4.3392,4.3394,4.3413,4.3621,4.3636,4.3654,4.35,4.3503,4.3506,4.3617,0,4.2844,4.2971,4.2987,4.3099,4.3161,4.3155,4.3217,4.326,4.3282,4.3337,4.3359,4.3421,4.3392,4.3414,4.346,4.3486,4.3549,4.3478,4.3555,4.3558,4.3544,4.3673,4.3689,4.3793,4.3632,4.3634,4.3636,0,4.2984,4.3039,4.3159,4.3213,4.3239,4.3295,4.3356,4.3408,4.3457,4.347,4.3511,4.3512,4.3583,4.3539,4.3638,4.359,4.3622,4.364,4.3644,4.3652,4.3602,4.3685,4.3826,4.3842,4.3659,4.3657,4.3655,0,4.3059,4.3163,4.3249,4.3276,4.3341,4.338,4.3409,4.3455,4.3494,4.3547,4.3572,4.3631,4.3664,4.371,4.3726,4.3692,4.3825,4.3781,4.3836,4.3836,4.3865,4.3863,4.4013,4.3884,4.3884,4.3884,4.3883,0,4.3176,4.3249,4.3284,4.3336,4.3418,4.3435,4.3515,4.3541,4.3583,4.3639,4.3637,4.369,4.3708,4.3763,4.3776,4.3857,4.3871,4.3883,4.3885,4.3884,4.3882,4.3905,4.3899,4.3888,4.3887,4.3886,4.3886,0,4.3274,4.33,4.3393,4.3448,4.3463,4.3521,4.3567,4.3617,4.3638,4.371,4.3728,4.376,4.3826,4.3847,4.3925,4.3934,4.4028,4.4024,4.4012,4.4013,4.4067,4.4062,4.4238,4.4262,4.4116,4.4118,4.4119,0,4.3347,4.3404,4.3465,4.3504,4.3535,4.3597,4.3637,4.3655,4.3696,4.3757,4.38,4.3865,4.3919,4.4023,4.4053,4.4113,4.4111,4.4168,4.412,4.4116,4.4113,4.411,4.4115,4.4177,4.4179,4.418,4.4181,0,4.3475,4.3485,4.3544,4.3608,4.3656,4.3706,4.3755,4.3786,4.3811,4.3857,4.3925,4.3967,4.4048,4.4113,4.4174,4.4202,4.4196,4.4196,4.4212,4.4211,4.4203,4.4209,4.4038,4.4192,4.4191,4.419,4.419,4.4189,4.3563,4.3614,4.3666,4.3731,4.377,4.3816,4.3866,4.3895,4.3952,4.4022,4.4028,4.4101,4.4149,4.4231,4.4262,4.4319,4.4302,4.4325,4.4331,4.4337,4.4342,4.4194,4.433,4.4329,4.4329,4.4329,4.4329,0,4.3691,4.3724,4.3785,4.3854,4.3906,4.3897,4.3951,4.3994,4.406,4.4105,4.4159,4.4237,4.43,4.4336,4.4398,4.4437,4.4436,4.4453,4.4451,4.4457,4.4352,4.4333,4.4453,4.4453,4.4453,4.4453,4.4453,4.4453,4.3764,4.385,4.3866,4.3971,4.4003,4.4077,4.4109,4.4151,4.4188,4.4276,4.433,4.4353,4.4394,4.446,4.4518,4.4526,4.455,4.4569,4.4576,4.4477,4.4465,4.4452,4.4434,4.4574,4.4574,4.4676,4.4677,4.4678]}]]